FW5442 Weather Reports


time (UTC)temp
C
wind
direction
speed
KPH
gust
KPH
rain 1hr
cm
rain 24hr
cm
rain mn
cm
humidity
%
barometer
mb
20260508085054 11 0 0.0 0.0 0.00 0.00 0.00 80 1015.0
20260508084551 11 0 0.0 0.0 0.00 0.00 0.00 79 1014.8
20260508084052 11 0 0.0 0.0 0.00 0.00 0.00 76 1015.0
20260508083553 11 0 0.0 0.0 0.00 0.00 0.00 77 1014.9
20260508083053 11 0 0.0 0.0 0.00 0.00 0.00 78 1015.0
20260508082554 11 0 0.0 0.0 0.00 0.00 0.00 78 1014.7
20260508082052 11 0 0.0 0.0 0.00 0.00 0.00 78 1014.7
20260508081619 11 0 0.0 0.0 0.00 0.00 0.00 77 1014.9
20260508081054 11 0 0.0 0.0 0.00 0.00 0.00 72 1014.9
20260508080555 11 0 0.0 0.0 0.00 0.00 0.00 72 1015.0
20260508080053 11 0 0.0 0.0 0.00 0.00 0.00 72 1015.1
20260508075552 11 0 0.0 0.0 0.00 0.00 0.00 72 1015.1
20260508075054 11 0 0.0 0.0 0.00 0.00 0.00 73 1015.2
20260508074553 11 0 0.0 0.0 0.00 0.00 0.00 75 1015.0
20260508074052 11 0 0.0 0.0 0.00 0.00 0.00 75 1014.9
20260508073553 11 0 0.0 0.0 0.00 0.00 0.00 74 1014.8
20260508073055 11 0 0.0 0.0 0.00 0.00 0.00 74 1014.8
20260508072555 11 0 0.0 0.0 0.00 0.00 0.00 74 1014.9
20260508072052 11 0 0.0 0.0 0.00 0.00 0.00 75 1015.0
20260508071557 11 0 0.0 0.0 0.00 0.00 0.00 77 1015.0
20260508071052 11 0 0.0 0.0 0.00 0.00 0.00 78 1015.3
20260508070558 11 0 0.0 0.0 0.00 0.00 0.00 80 1015.4
20260508070107 11 0 0.0 0.0 0.00 0.00 0.00 80 1015.3
20260508065553 11 0 0.0 0.0 0.00 0.00 0.00 82 1015.5
20260508065056 12 0 0.0 0.0 0.00 0.00 0.00 83 1015.4
20260508064557 12 0 0.0 0.0 0.00 0.00 0.00 83 1015.4
20260508064052 12 0 0.0 0.0 0.00 0.00 0.00 83 1015.5
20260508063553 12 0 0.0 0.0 0.00 0.00 0.00 83 1015.5
20260508063058 12 0 0.0 0.0 0.00 0.00 0.00 83 1015.6
20260508062552 12 0 0.0 0.0 0.00 0.00 0.00 83 1015.3
20260508062052 12 0 0.0 0.0 0.00 0.00 0.00 83 1015.5
20260508061557 12 0 0.0 0.0 0.00 0.00 0.00 83 1015.5
20260508061054 12 0 0.0 0.0 0.00 0.00 0.00 83 1015.5
20260508060553 13 0 0.0 0.0 0.00 0.00 0.00 83 1015.5
20260508060100 13 0 0.0 0.0 0.00 0.00 0.00 83 1015.5
20260508055554 13 0 0.0 0.0 0.00 0.00 0.00 83 1015.5
20260508055052 13 0 0.0 0.0 0.00 0.00 0.00 83 1015.3
20260508054558 13 0 0.0 0.0 0.00 0.00 0.00 83 1015.4
20260508054055 13 0 0.0 0.0 0.00 0.00 0.00 83 1015.6
20260508053557 13 0 0.0 0.0 0.00 0.00 0.00 83 1015.9
20260508053059 13 0 0.0 0.0 0.00 0.00 0.00 83 1015.6
20260508052557 13 0 0.0 0.0 0.00 0.00 0.00 83 1015.7
20260508052057 13 0 0.0 0.0 0.00 0.00 0.00 83 1015.5
20260508051559 13 0 0.0 0.0 0.00 0.00 0.00 83 1015.5
20260508051056 13 0 0.0 0.0 0.00 0.00 0.00 83 1015.5
20260508050600 13 0 0.0 0.0 0.00 0.00 0.00 83 1015.8
20260508050057 13 0 0.0 0.0 0.00 0.00 0.00 83 1015.8
20260508045556 13 0 0.0 0.0 0.00 0.81 0.00 83 1015.8
20260508045059 13 0 0.0 0.0 0.00 0.81 0.00 83 1015.6
20260508044606 13 0 0.0 0.0 0.00 0.81 0.00 83 1015.7
20260508044100 13 0 0.0 0.0 0.00 0.81 0.00 83 1015.6
20260508043600 13 0 0.0 0.0 0.00 0.81 0.00 83 1015.5
20260508043111 13 0 0.0 0.0 0.00 0.81 0.00 83 1015.6
20260508042600 13 0 0.0 0.0 0.00 0.81 0.00 82 1015.5
20260508042056 13 0 0.0 0.0 0.00 0.81 0.00 82 1015.6
20260508041556 13 0 0.0 0.0 0.00 0.81 0.00 82 1015.6
20260508041057 13 0 0.0 0.0 0.00 0.81 0.00 81 1015.7
20260508040558 14 0 0.0 0.0 0.00 0.81 0.00 81 1015.7
20260508040101 14 0 0.0 0.0 0.00 0.81 0.00 79 1015.7
20260508035556 14 0 0.0 0.0 0.00 0.81 0.00 77 1015.7
20260508035056 14 0 0.0 0.0 0.00 0.81 0.00 75 1015.7
20260508034558 14 0 0.0 0.0 0.00 0.81 0.00 75 1015.9
20260508034057 14 0 0.0 0.0 0.00 0.81 0.00 75 1015.9
20260508033556 15 0 0.0 0.0 0.00 0.81 0.00 75 1015.8
20260508033055 14 0 0.0 0.0 0.00 0.81 0.00 75 1016.1
20260508032559 14 0 0.0 0.0 0.00 0.81 0.00 75 1016.0
20260508032055 15 0 0.0 0.0 0.00 0.81 0.00 74 1016.1
20260508031556 15 0 0.0 0.0 0.00 0.81 0.00 75 1016.1
20260508031057 15 0 0.0 0.0 0.00 0.81 0.00 75 1016.0
20260508030558 15 0 0.0 0.0 0.00 0.81 0.00 74 1016.0
20260508025556 15 0 0.0 0.0 0.00 0.81 0.00 72 1016.0
20260508025056 15 0 0.0 0.0 0.00 0.81 0.00 72 1015.9
20260508024559 15 0 0.0 0.0 0.00 0.81 0.00 76 1016.1
20260508024056 15 0 0.0 0.0 0.00 0.81 0.00 77 1016.0
20260508023556 15 0 0.0 0.0 0.00 0.81 0.00 74 1016.0
20260508023108 15 0 0.0 0.0 0.00 0.81 0.00 70 1015.9
20260508022553 15 0 0.0 0.0 0.00 0.81 0.00 70 1015.8
20260508022052 15 0 0.0 0.0 0.00 0.81 0.00 71 1015.6
20260508021552 15 0 0.0 0.0 0.00 0.81 0.00 73 1015.7
20260508021052 15 0 0.0 0.0 0.00 0.81 0.00 70 1015.5
20260508020552 16 0 0.0 0.0 0.00 0.81 0.00 71 1015.7
20260508020053 16 0 0.0 0.0 0.00 0.81 0.00 68 1015.6
20260508015555 16 0 0.0 0.0 0.00 0.81 0.00 70 1015.6
20260508015052 15 0 0.0 0.0 0.00 0.81 0.00 71 1015.5
20260508014553 15 0 0.0 0.0 0.00 0.81 0.00 71 1015.5
20260508014053 15 0 0.0 0.0 0.00 0.81 0.00 72 1015.4
20260508013553 15 0 0.0 0.0 0.00 0.81 0.00 72 1015.3
20260508013051 15 0 0.0 0.0 0.00 0.81 0.00 72 1015.2
20260508012552 15 0 0.0 0.0 0.00 0.81 0.00 72 1015.2
20260508012052 16 0 0.0 0.0 0.00 0.81 0.00 72 1015.1
20260508011555 16 0 0.0 0.0 0.00 0.81 0.00 71 1015.1
20260508011056 16 0 0.0 0.0 0.00 0.81 0.00 75 1015.2
20260508010552 16 0 0.0 0.0 0.00 0.81 0.00 72 1015.2
20260508010053 16 0 0.0 0.0 0.00 0.81 0.00 71 1015.2
20260508005552 16 0 0.0 0.0 0.00 0.81 0.00 65 1015.0
20260508005052 17 0 0.0 0.0 0.00 0.81 0.00 65 1015.1
20260508004555 17 0 0.0 0.0 0.00 0.81 0.00 64 1015.0
20260508004052 17 0 0.0 0.0 0.00 0.81 0.00 63 1014.9
20260508003552 17 0 0.0 0.0 0.00 0.81 0.00 62 1015.1
20260508003059 17 0 0.0 0.0 0.00 0.81 0.00 61 1015.0
20260508002552 17 0 0.0 0.0 0.00 0.81 0.00 61 1015.0
20260508002052 17 0 0.0 0.0 0.00 0.81 0.00 61 1015.0
20260508001555 18 0 0.0 0.0 0.00 0.81 0.00 60 1015.0
20260508001052 18 0 0.0 0.0 0.00 0.81 0.00 59 1014.9
20260508000554 18 0 0.0 0.0 0.00 0.81 0.00 58 1014.9
20260508000054 18 0 0.0 0.0 0.00 0.81 0.00 58 1015.1
20260507235552 18 0 0.0 0.0 0.00 0.81 0.00 58 1014.9
20260507235052 18 0 0.0 0.0 0.00 0.81 0.00 56 1015.1
20260507234603 18 0 0.0 0.0 0.00 0.81 0.00 56 1014.9
20260507234051 18 0 0.0 0.0 0.00 0.81 0.00 55 1015.1
20260507233553 18 0 0.0 0.0 0.00 0.81 0.00 56 1015.0
20260507233056 18 0 0.0 0.0 0.00 0.81 0.00 56 1015.0
20260507232553 18 0 0.0 16.1 0.00 0.81 0.00 54 1015.0
20260507232052 18 0 0.0 16.1 0.00 0.81 0.00 54 1015.0
20260507231558 18 0 4.8 16.1 0.00 0.81 0.00 54 1015.1
20260507231052 19 0 0.0 1.6 0.00 0.81 0.00 53 1015.1
20260507230552 19 0 0.0 12.9 0.00 0.81 0.00 53 1015.2
20260507230058 19 0 0.0 14.5 0.00 0.81 0.00 52 1015.1
20260507225552 19 0 8.0 14.5 0.00 0.81 0.00 52 1015.1
20260507225052 19 0 0.0 12.9 0.00 0.81 0.00 51 1015.1
20260507224555 19 0 0.0 12.9 0.00 0.81 0.00 51 1015.1
20260507224054 19 0 0.0 12.9 0.00 0.81 0.00 51 1015.1
20260507223553 19 309 1.6 12.9 0.00 0.81 0.00 52 1015.2
20260507223058 19 0 0.0 12.9 0.00 0.81 0.00 52 1015.2
20260507222553 19 335 0.0 16.1 0.00 0.81 0.00 51 1015.3
20260507222051 19 0 1.6 16.1 0.00 0.81 0.00 52 1015.3
20260507221552 19 0 0.0 16.1 0.00 0.81 0.00 53 1015.2
20260507221057 19 0 4.8 16.1 0.00 0.81 0.00 52 1015.3
20260507220552 19 335 0.0 9.7 0.00 0.81 0.00 49 1015.1
20260507220054 19 0 0.0 19.3 0.00 0.81 0.00 49 1015.1
20260507215554 19 10 0.0 19.3 0.00 0.81 0.00 50 1015.0
20260507215053 19 0 12.9 20.9 0.00 0.81 0.00 48 1015.0
20260507214558 20 0 6.4 20.9 0.00 0.81 0.00 49 1014.9
20260507214052 19 307 6.4 20.9 0.00 0.81 0.00 49 1015.0
20260507213553 19 0 0.0 20.9 0.00 0.81 0.00 49 1014.9
20260507213054 19 347 4.8 19.3 0.00 0.81 0.00 51 1015.0
20260507212552 19 347 1.6 20.9 0.00 0.81 0.00 52 1015.1
20260507212052 19 335 3.2 20.9 0.00 0.81 0.00 52 1014.8
20260507211554 19 333 4.8 20.9 0.00 0.81 0.00 51 1014.9
20260507211051 19 317 6.4 20.9 0.00 0.81 0.00 51 1015.0
20260507210551 19 342 0.0 19.3 0.00 0.81 0.00 54 1015.3
20260507210056 19 328 12.9 22.5 0.00 0.81 0.00 52 1015.1
20260507205552 19 3 12.9 22.5 0.00 0.81 0.00 51 1015.2
20260507205051 20 326 6.4 27.4 0.00 0.81 0.00 51 1015.1
20260507204554 20 319 9.7 27.4 0.00 0.81 0.00 49 1015.1
20260507204051 20 309 9.7 19.3 0.00 0.81 0.00 50 1015.1
20260507203554 20 0 1.6 19.3 0.00 0.81 0.00 49 1014.9
20260507203102 20 328 8.0 19.3 0.00 0.81 0.00 51 1015.1
20260507202552 20 0 8.0 17.7 0.00 0.81 0.00 50 1015.1
20260507202052 19 354 0.0 17.7 0.00 0.81 0.00 48 1015.1
20260507201553 20 0 0.0 19.3 0.00 0.81 0.00 48 1015.2
20260507201052 19 0 4.8 40.2 0.00 0.81 0.00 49 1015.2
20260507200555 19 331 8.0 40.2 0.00 0.81 0.00 49 1015.1
20260507200053 19 1 6.4 17.7 0.00 0.81 0.00 50 1015.2
20260507195554 19 0 14.5 17.7 0.00 0.86 0.00 51 1015.2
20260507195054 20 322 1.6 20.9 0.00 0.86 0.00 51 1015.2
20260507194556 20 0 4.8 24.1 0.00 0.86 0.00 52 1015.3
20260507194051 20 317 8.0 24.1 0.00 0.86 0.00 52 1015.6
20260507193554 20 339 12.9 27.4 0.00 0.86 0.00 53 1015.4
20260507193059 20 303 6.4 27.4 0.00 0.86 0.00 50 1015.5
20260507192552 20 21 0.0 22.5 0.00 0.86 0.00 50 1015.6
20260507192052 20 0 0.0 22.5 0.00 0.86 0.00 49 1015.7
20260507191601 20 332 17.7 25.7 0.00 0.86 0.00 51 1015.7
20260507191052 19 0 3.2 27.4 0.00 0.86 0.00 50 1015.8
20260507190552 20 333 16.1 27.4 0.00 0.86 0.00 50 1015.9
20260507190057 19 309 4.8 22.5 0.00 0.86 0.00 52 1016.1
20260507185552 19 309 12.9 22.5 0.00 0.86 0.00 50 1016.0
20260507185055 20 30 0.0 22.5 0.00 0.86 0.00 52 1016.0
20260507184558 19 0 0.0 27.4 0.00 0.86 0.00 53 1015.9
20260507184052 19 46 14.5 27.4 0.00 0.86 0.00 52 1016.2
20260507183551 19 44 1.6 25.7 0.00 0.86 0.00 54 1016.1
20260507183055 19 0 0.0 19.3 0.00 0.86 0.00 54 1016.2
20260507182553 19 334 1.6 24.1 0.00 0.86 0.00 52 1016.1
20260507182052 19 0 8.0 27.4 0.00 0.86 0.00 54 1016.3
20260507181558 18 0 6.4 27.4 0.00 0.86 0.00 55 1016.3
20260507181051 18 328 9.7 24.1 0.00 0.86 0.00 52 1016.4
20260507180558 18 0 0.0 12.9 0.00 0.86 0.00 57 1016.3
20260507180058 18 0 0.0 22.5 0.00 0.86 0.00 54 1016.3
20260507175551 18 8 3.2 22.5 0.00 0.86 0.00 55 1016.6
20260507175052 18 336 3.2 20.9 0.00 0.86 0.00 55 1016.6
20260507174604 18 350 3.2 19.3 0.00 0.86 0.00 56 1016.6
20260507174054 18 0 4.8 20.9 0.00 0.86 0.00 55 1016.5
20260507173552 18 336 3.2 20.9 0.00 0.86 0.00 58 1016.6
20260507173103 18 0 3.2 20.9 0.00 0.86 0.00 57 1016.7
20260507172554 18 18 3.2 22.5 0.00 0.86 0.00 58 1016.6
20260507172053 18 0 11.3 22.5 0.00 0.86 0.00 58 1016.7
20260507171611 18 316 6.4 20.9 0.00 0.86 0.00 61 1016.7
20260507171052 18 0 4.8 20.9 0.00 0.86 0.00 61 1016.8
20260507170555 18 0 0.0 17.7 0.00 0.86 0.00 60 1016.8
20260507170057 18 28 3.2 27.4 0.00 0.86 0.00 59 1016.8
20260507165558 18 0 4.8 27.4 0.00 0.86 0.00 59 1017.0
20260507165055 18 0 0.0 17.7 0.00 0.86 0.00 62 1016.9
20260507164605 18 328 0.0 12.9 0.00 0.86 0.00 60 1016.8
20260507164056 18 15 1.6 19.3 0.00 0.86 0.00 62 1016.9
20260507163553 17 0 3.2 22.5 0.00 0.86 0.00 58 1016.9
20260507163053 17 20 4.8 22.5 0.00 0.86 0.00 59 1016.9
20260507162556 17 11 0.0 30.6 0.00 0.86 0.00 62 1016.9
20260507162055 17 348 3.2 30.6 0.00 0.86 0.00 62 1016.8
20260507161603 17 358 3.2 30.6 0.00 0.86 0.00 61 1017.0
20260507161057 17 0 9.7 25.7 0.00 0.86 0.00 63 1017.1
20260507160556 17 0 3.2 25.7 0.00 0.86 0.00 63 1017.3
20260507160059 17 335 1.6 19.3 0.00 0.86 0.00 65 1017.1
20260507155555 17 0 3.2 24.1 0.00 0.86 0.00 64 1017.2
20260507155056 17 0 6.4 24.1 0.00 0.86 0.00 64 1017.2
20260507154557 17 342 12.9 24.1 0.00 0.86 0.00 65 1017.3
20260507154055 16 13 4.8 24.1 0.00 0.86 0.00 66 1017.1
20260507153552 16 311 14.5 24.1 0.00 0.86 0.00 64 1017.2
20260507153052 16 316 12.9 27.4 0.00 0.86 0.00 64 1017.2
20260507152555 16 27 14.5 27.4 0.00 0.86 0.00 67 1017.2
20260507152052 16 25 9.7 19.3 0.00 0.86 0.00 66 1017.2
20260507151552 16 30 12.9 27.4 0.00 0.86 0.00 67 1017.2
20260507151056 16 13 8.0 27.4 0.00 0.86 0.00 66 1017.1
20260507150555 16 58 8.0 27.4 0.00 0.86 0.00 65 1017.1
20260507145556 16 118 11.3 29.0 0.00 0.86 0.00 68 1017.4
20260507145055 16 55 12.9 29.0 0.00 0.86 0.00 67 1017.4
20260507144553 16 55 12.9 24.1 0.00 0.86 0.00 68 1017.4
20260507144056 16 0 3.2 24.1 0.00 0.86 0.00 71 1017.3
20260507143559 15 20 9.7 24.1 0.00 0.86 0.00 71 1017.2
20260507143104 15 46 9.7 24.1 0.00 0.86 0.00 71 1017.2
20260507142555 15 17 9.7 27.4 0.00 0.86 0.00 70 1017.1
20260507142055 15 39 9.7 27.4 0.00 0.86 0.00 72 1017.1
20260507141557 15 6 3.2 17.7 0.00 0.86 0.00 74 1017.3
20260507141053 15 10 6.4 24.1 0.00 0.86 0.00 73 1017.3
20260507140552 15 353 8.0 24.1 0.00 0.86 0.00 76 1017.4
20260507140058 15 356 11.3 25.7 0.00 0.86 0.00 76 1017.2
20260507135556 14 333 12.9 25.7 0.00 0.89 0.00 76 1017.2
20260507135056 14 349 11.3 22.5 0.00 0.89 0.00 79 1017.3
20260507134557 13 359 9.7 22.5 0.00 0.89 0.00 78 1017.0
20260507134055 13 350 8.0 19.3 0.00 0.89 0.00 81 1017.0
20260507133555 13 8 11.3 20.9 0.00 0.89 0.00 81 1016.9
20260507133058 13 322 11.3 22.5 0.00 0.89 0.00 81 1016.9
20260507132556 13 17 11.3 22.5 0.00 0.89 0.00 82 1016.9
20260507132055 13 11 11.3 22.5 0.00 0.89 0.00 82 1016.9
20260507131612 13 15 6.4 19.3 0.00 0.89 0.00 84 1016.8
20260507131057 13 15 8.0 19.3 0.00 0.89 0.00 84 1016.7
20260507130552 12 13 12.9 19.3 0.00 0.89 0.00 84 1016.8
20260507130057 12 18 11.3 20.9 0.00 0.89 0.00 84 1016.7
20260507125553 12 5 12.9 20.9 0.00 0.89 0.00 84 1016.6
20260507125055 12 348 12.9 20.9 0.00 0.89 0.00 83 1016.5
20260507124556 12 15 9.7 17.7 0.00 0.89 0.00 82 1016.4
20260507124056 12 13 11.3 16.1 0.00 0.89 0.00 81 1016.3
20260507123556 12 338 9.7 17.7 0.00 0.89 0.00 79 1016.3
20260507123106 11 307 9.7 17.7 0.00 0.89 0.00 78 1016.3
20260507122555 11 347 11.3 17.7 0.00 0.89 0.00 78 1016.1
20260507122055 11 336 9.7 17.7 0.00 0.89 0.00 77 1016.2
20260507121605 11 318 12.9 17.7 0.00 0.89 0.00 77 1016.1
20260507121056 11 335 8.0 12.9 0.00 0.89 0.00 76 1016.0
20260507120555 11 10 6.4 12.9 0.00 0.89 0.00 76 1015.9
20260507120056 11 338 9.7 16.1 0.00 0.89 0.00 75 1015.8
20260507115555 11 1 9.7 16.1 0.00 0.91 0.00 74 1015.7
20260507115055 11 30 6.4 12.9 0.00 0.91 0.00 73 1015.9
20260507114601 11 8 6.4 11.3 0.00 0.91 0.00 73 1015.7
20260507114056 11 344 6.4 14.5 0.00 0.91 0.00 73 1015.7
20260507113555 11 335 8.0 14.5 0.00 0.91 0.00 74 1015.8
20260507113100 11 338 8.0 19.3 0.00 0.91 0.00 74 1015.7
20260507112556 11 337 11.3 19.3 0.00 0.91 0.00 74 1015.8
20260507112056 11 338 9.7 17.7 0.00 0.91 0.00 75 1015.7
20260507111555 11 344 12.9 19.3 0.00 0.91 0.00 74 1015.5
20260507111058 11 333 11.3 19.3 0.00 0.91 0.00 74 1015.3
20260507110555 11 10 11.3 20.9 0.00 0.91 0.00 74 1015.3
20260507110108 11 336 11.3 22.5 0.00 0.91 0.00 75 1015.2
20260507105558 11 335 14.5 22.5 0.00 0.91 0.00 75 1015.2
20260507105056 11 334 12.9 20.9 0.00 0.91 0.00 74 1015.0
20260507104614 11 11 12.9 19.3 0.00 0.91 0.00 73 1014.9
20260507104052 11 330 11.3 17.7 0.00 0.91 0.00 72 1014.8
20260507103556 11 327 11.3 16.1 0.00 0.91 0.00 71 1014.7
20260507103057 11 335 8.0 14.5 0.00 0.91 0.00 70 1014.5
20260507102556 11 316 11.3 14.5 0.00 0.91 0.00 70 1014.6
20260507102056 11 345 8.0 14.5 0.00 0.91 0.00 70 1014.4
20260507101558 11 332 9.7 16.1 0.00 0.91 0.00 70 1014.5
20260507101055 11 337 11.3 16.1 0.00 0.91 0.00 69 1014.5
20260507100555 11 338 8.0 17.7 0.00 0.91 0.00 69 1014.6
20260507100054 11 351 9.7 17.7 0.00 0.91 0.00 69 1014.5
20260507095555 11 313 9.7 14.5 0.00 0.91 0.00 69 1014.7
20260507095055 11 345 9.7 12.9 0.00 0.91 0.00 68 1014.6
20260507094608 12 352 8.0 12.9 0.00 0.91 0.00 67 1014.5
20260507094055 12 331 6.4 12.9 0.00 0.91 0.00 66 1014.4
20260507093556 12 331 6.4 12.9 0.00 0.91 0.00 66 1014.3
20260507093059 12 331 6.4 12.9 0.00 0.91 0.00 65 1014.3
20260507092555 12 333 8.0 16.1 0.00 0.91 0.00 65 1014.3
20260507092056 12 323 6.4 17.7 0.00 0.91 0.00 64 1014.3
20260507091635 12 6 11.3 17.7 0.00 0.91 0.00 63 1014.3
20260507091056 12 333 9.7 14.5 0.00 0.91 0.00 61 1014.4
20260507090556 12 337 9.7 14.5 0.00 0.91 0.00 60 1014.2
20260507090106 12 333 8.0 16.1 0.00 0.91 0.00 59 1014.3
20260507085555 12 347 8.0 19.3 0.00 0.91 0.00 60 1014.1